Grand Junction, CO

4:06 PM MDT on May 24, 2018 (GMT -0600)
Walker

Weather History for KGJT - September, 2012

Change the Weather History Date:

Wednesday, September 5, 2012

  Actual Average Record
Temperature  
Mean Temperature 73 °F 70 °F  
Max Temperature 91 °F 85 °F 98 °F (1899)
Min Temperature 54 °F 56 °F 42 °F (1961)
Degree Days  
Heating Degree Days 0 1  
Month to date heating degree days 0 1  
Since 1 July heating degree days 0 4  
Cooling Degree Days 8 6  
Month to date cooling degree days 47 32  
Year to date cooling degree days 1446 1051  
Growing Degree Days 22 (Base 50)    
Moisture  
Dew Point 21 °F    
Average Humidity 21    
Maximum Humidity 35    
Minimum Humidity 6    
Precipitation  
Precipitation 0.00 in 0.03 in 0.75 in (1939)
Month to date precipitation T 0.18  
Year to date precipitation 2.56 6.03  
Snow  
Snow 0.00 in 0.00 in 0.00 in (2002)
Month to date snowfall 0.0 0.0  
Since 1 July snowfall 0.0 0.0  
Since 1 September snowfall 0.0 0.0  
Snow Depth 0.00 in    
Sea Level Pressure  
Sea Level Pressure 29.92 in    
Wind  
Wind Speed 6 mph (SE)    
Max Wind Speed 17 mph    
Max Gust Speed 22 mph    
Visibility 10 miles    
Events      
T = Trace of Precipitation, MM = Missing Value Source: NWS Daily Summary

Daily Weather History Graph

Daily Weather History Graph

Search for Another Location

Airport or City:

Astronomy

Sep. 05, 2012 Rise Set
Actual Time 6:46 AM MDT 7:37 PM MDT
Civil Twilight 6:19 AM MDT 8:04 PM MDT
Nautical Twilight 5:47 AM MDT 8:36 PM MDT
Astronomical Twilight 5:14 AM MDT 9:10 PM MDT
Moon 10:12 PM MDT (9/5) 11:51 AM MDT (9/5)
Length of Visible Light 13h 44m
Length of Day
12h 50m
Waning Gibbous, 75% of the Moon is Illuminated
Sep 5
Waning Gibbous
Sep 8
Last Quarter
Sep 15
New
Sep 22
First Quarter
Sep 29
Full

Hourly Weather History & Observations

Time (MDT) Temp. Dew Point Humidity Pressure Visibility Wind Dir Wind Speed Gust Speed Precip Events Conditions
12:53 AM 64.9 °F 19.0 °F 17% 29.91 in 10.0 mi ESE 4.6 mph - N/A   Clear
1:53 AM 64.9 °F 25.0 °F 22% 29.92 in 10.0 mi ESE 3.5 mph - N/A   Clear
2:53 AM 61.0 °F 19.0 °F 20% 29.92 in 10.0 mi Calm Calm - N/A   Clear
3:53 AM 60.1 °F 24.1 °F 25% 29.93 in 10.0 mi East 4.6 mph - N/A   Clear
4:53 AM 59.0 °F 25.0 °F 27% 29.94 in 10.0 mi East 3.5 mph - N/A   Clear
5:53 AM 57.0 °F 25.0 °F 29% 29.97 in 10.0 mi East 4.6 mph - N/A   Clear
6:53 AM 54.0 °F 27.0 °F 35% 29.98 in 10.0 mi ENE 5.8 mph - N/A   Clear
7:53 AM 60.1 °F 28.0 °F 30% 30.01 in 10.0 mi ESE 9.2 mph - N/A   Clear
8:53 AM 66.9 °F 30.0 °F 25% 30.02 in 10.0 mi SSE 10.4 mph - N/A   Clear
9:53 AM 72.0 °F 28.0 °F 20% 30.02 in 10.0 mi SSE 12.7 mph - N/A   Clear
10:53 AM 75.9 °F 27.0 °F 16% 29.99 in 10.0 mi South 8.1 mph - N/A   Clear
11:53 AM 80.1 °F 24.1 °F 13% 29.98 in 10.0 mi Variable 6.9 mph - N/A   Clear
12:53 PM 84.0 °F 25.0 °F 12% 29.94 in 10.0 mi South 9.2 mph - N/A   Clear
1:53 PM 88.0 °F 21.0 °F 9% 29.90 in 10.0 mi SW 6.9 mph - N/A   Clear
2:53 PM 90.0 °F 18.0 °F 7% 29.88 in 10.0 mi West 10.4 mph - N/A   Clear
3:53 PM 90.0 °F 15.1 °F 6% 29.86 in 10.0 mi West 8.1 mph 18.4 mph N/A   Clear
4:53 PM 90.0 °F 15.1 °F 6% 29.84 in 10.0 mi WNW 8.1 mph - N/A   Clear
5:53 PM 89.1 °F 14.0 °F 6% 29.84 in 10.0 mi NW 4.6 mph - N/A   Clear
6:53 PM 87.1 °F 17.1 °F 8% 29.84 in 10.0 mi WNW 5.8 mph - N/A   Clear
7:53 PM 78.1 °F 16.0 °F 10% 29.85 in 10.0 mi Calm Calm - N/A   Clear
8:53 PM 75.9 °F 15.1 °F 10% 29.85 in 10.0 mi ENE 3.5 mph - N/A   Clear
9:53 PM 69.1 °F 16.0 °F 13% 29.87 in 10.0 mi ESE 3.5 mph - N/A   Clear
10:53 PM 71.1 °F 18.0 °F 13% 29.86 in 10.0 mi East 3.5 mph - N/A   Clear
11:53 PM 66.9 °F 18.0 °F 15% 29.87 in 10.0 mi SE 5.8 mph - N/A   Clear